This is the latest recevied weather packets stored in our database for station/object R1CBW-13. If no packets are shown the sender has not sent any weather packets the latest 10 day(s).
| Time | Temp. | Humidity | Pressure | Rain* | Wind** | Luminosity | Snow |
|---|---|---|---|---|---|---|---|
| 1776943035 | 4.44° C | 37% | 1006.3 hPa | 0 mm | - | - | - |
| 1776942975 | 4.44° C | 37% | 1006.2 hPa | 0 mm | - | - | - |
| 1776942914 | 5° C | 37% | 1006.4 hPa | 0 mm | - | - | - |
| 1776942854 | 3.89° C | 37% | 1006.2 hPa | 0 mm | - | - | - |
| 1776942795 | 3.89° C | 38% | 1006.3 hPa | 0 mm | - | - | - |
| 1776942735 | 4.44° C | 37% | 1006.3 hPa | 0 mm | - | - | - |
| 1776942675 | 3.89° C | 38% | 1006.2 hPa | 0 mm | - | - | - |
| 1776942615 | 4.44° C | 36% | 1006.3 hPa | 0 mm | - | - | - |
| 1776942555 | 4.44° C | 37% | 1006.2 hPa | 0 mm | - | - | - |
| 1776942495 | 4.44° C | 37% | 1006.2 hPa | 0 mm | - | - | - |
| 1776942435 | 3.89° C | 37% | 1006.2 hPa | 0 mm | - | - | - |
| 1776942375 | 3.89° C | 37% | 1006.1 hPa | 0 mm | - | - | - |
| 1776942315 | 4.44° C | 36% | 1006.1 hPa | 0 mm | - | - | - |
| 1776942254 | 4.44° C | 36% | 1006.1 hPa | 0 mm | - | - | - |
| 1776942194 | 4.44° C | 37% | 1006 hPa | 0 mm | - | - | - |
| 1776942134 | 3.89° C | 37% | 1006.1 hPa | 0 mm | - | - | - |
| 1776942074 | 3.33° C | 37% | 1005.8 hPa | 0 mm | - | - | - |
| 1776942014 | 3.89° C | 36% | 1006 hPa | 0 mm | - | - | - |
| 1776941954 | 4.44° C | 35% | 1005.8 hPa | 0 mm | - | - | - |
| 1776941894 | 3.89° C | 36% | 1006 hPa | 0 mm | - | - | - |
| 1776941835 | 3.89° C | 36% | 1006 hPa | 0 mm | - | - | - |
| 1776941775 | 4.44° C | 35% | 1006.2 hPa | 0 mm | - | - | - |
| 1776941714 | 5° C | 35% | 1006 hPa | 0 mm | - | - | - |
| 1776941654 | 4.44° C | 35% | 1005.8 hPa | 0 mm | - | - | - |
| 1776941594 | 4.44° C | 34% | 1005.8 hPa | 0 mm | - | - | - |
* Rain latest hour (hover to see other rain measurements)
** Current wind speed in m/s (hover to see current wind gust speed)